Location: Oroua River
(40.4333°S, 175.4333°E)
Time: 14:51:02
(UTC+00:00)

CZ-2C R/B - Pass Details

Date: 03 February 2023
Orbit: 784 x 869 km, 98.3° (Epoch: 23 March)

Event Time Altitude Azimuth Distance (km) Brightness Sun altitude
Rises 16:15:25 0° 160° (SSE) 3,343 6.8 -13.1°
Reaches altitude 10° 16:17:56 10° 152° (SSE) 2,395 6.1 -12.7°
Maximum altitude 16:22:53 40° 82° (E) 1,160 3.9 -11.9°
Drops below altitude 10° 16:27:44 10° 13° (NNE) 2,346 4.8 -11.1°
Sets 16:30:10 0° 5° (N) 3,265 5.5 -10.8°
